Regional Weather Roundup
Issued by NWS Little Rock, AR

Home | Current Version | Previous Version | Graphics & Text | Print | Product List | Glossary On
Versions: 1 2 3 4 5 6 7 8 9 10 11 12 13 14 15 16 17 18 19 20 21 22 23 24 25 26 27 28 29 30 31 32 33 34 35 36 37 38 39 40 41 42 43 44 45 46 47 48 49 50
000
ASUS44 KLZK 301605
RWRLZK

WEATHER ROUNDUP FOR ARKANSAS
NATIONAL WEATHER SERVICE LITTLE ROCK AR
1100 AM CDT TUE JUN 30 2015

NOTE: "FAIR" INDICATES FEW OR NO CLOUDS BELOW 12,000 FEET WITH NO
SIGNIFICANT WEATHER AND/OR OBSTRUCTIONS TO VISIBILITY.

ARZ001-003-010-029-301700-
NORTHWEST ARKANSAS

CITY           SKY/WX    TMP DP  RH WIND       PRES   REMARKS
FAYETTEVILLE   PTSUNNY   80  69  69 VRB3      30.04S
FORT SMITH     MOSUNNY   85  67  54 W5        30.01R HX  87
HARRISON       SUNNY     79  66  64 W8        30.03S
BENTONVILLE    PTSUNNY   79  66  65 SW6       30.05S
ROGERS         PTSUNNY   78  68  71 SW6       30.05R
SILOAM SPGS    PTSUNNY   81  66  61 S6        30.04R
HIGHFILL       PTSUNNY   81  69  67 S5        30.03F
SPRINGDALE     SUNNY     79  66  65 SW6       30.06S
$$

ARZ004-005-016-301700-
NORTH CENTRAL ARKANSAS

CITY           SKY/WX    TMP DP  RH WIND       PRES   REMARKS
BATESVILLE     SUNNY     82  70  65 W5        29.98S HX  86
FLIPPIN        SUNNY     81  66  61 SW6       29.98S
MTN HOME       SUNNY     77  69  76 SW3       29.99S
$$

ARZ040-041-301700-
WEST CENTRAL ARKANSAS

CITY           SKY/WX    TMP DP  RH WIND       PRES   REMARKS
MENA           PTSUNNY   88  70  55 W9        30.05  HX  92
MOUNT IDA      SUNNY     85  69  58 NW8       30.02R HX  89
$$

ARZ009-017-025-026-028-301700-
NORTHEAST ARKANSAS

CITY           SKY/WX    TMP DP  RH WIND       PRES   REMARKS
JONESBORO      SUNNY     85  67  54 W7        29.96R HX  87
NEWPORT        SUNNY     87  66  49 VRB6      29.98S HX  89
WALNUT RIDGE   SUNNY     81  68  65 SW8       29.96S
BLYTHEVILLE    SUNNY     83  69  62 SW6       29.95F HX  86
NW BLYTHEVILLE CLOUDY    84  68  58 W7        29.95S HX  87
$$

ARZ022-023-033-042-044-301700-
CENTRAL ARKANSAS

CITY           SKY/WX    TMP DP  RH WIND       PRES   REMARKS
LITTLE ROCK    MOSUNNY   86  69  56 NW7       29.99R HX  90
N LITTLE ROCK  MOSUNNY   83  72  70 W5        29.99R HX  88
JACKSONVILLE   MOSUNNY   83  70  65 NW6       29.99S HX  87
SEARCY         SUNNY     83  72  69 CALM      29.99S HX  88
HOT SPRINGS    SUNNY    N/A N/A N/A NW6       30.02R
RUSSELLVILLE   SUNNY     83  70  64 VRB5      30.00F HX  87
CLINTON        FAIR      81  72  74 W3        30.01F
$$

ARZ036-301700-
EAST ARKANSAS

CITY           SKY/WX    TMP DP  RH WIND       PRES   REMARKS
WEST MEMPHIS   MOSUNNY   82  74  76 VRB5      29.95F HX  88
$$

ARZ050-053-066-070-073-301700-
SOUTHWEST ARKANSAS

CITY           SKY/WX    TMP DP  RH WIND       PRES   REMARKS
ARKADELPHIA    FAIR      88  77  69 W9        30.00S HX 100
CAMDEN         SUNNY     86  73  66 NE9       30.00S HX  93
TEXARKANA      SUNNY     86  73  65 W7        30.02F HX  93
EL DORADO      CLOUDY    85  75  72 W10       30.02S HX  93
DE QUEEN       SUNNY     86  68  54 W7        30.01S HX  89
$$

ARZ056-057-069-301700-
SOUTHEAST ARKANSAS

CITY           SKY/WX    TMP DP  RH WIND       PRES   REMARKS
PINE BLUFF     PTSUNNY   84  75  74 W8        29.99R HX  92
STUTTGART      SUNNY     84  73  70 W6        29.98S HX  91
MONTICELLO     CLOUDY    84  77  79 W10       30.00R HX  94

$$




USA.gov is the U.S. government's official web portal to all federal, state and local government web resources and services.